Search your local weather  

 

Hazardous Weather Conditions

No active alerts for LOS ANGELES, CALIFORNIA

Current Conditions: LOS ANGELES, CALIFORNIA

Fair


65.0 F

Last Updated on Oct 21 2021, 9:51 am PDT
Humidity: 52%
Wind Speed: N 0.0 mph
Barometer 30.13 in
Dewpoint: 46.9 F
Visibility: 10.00 mi
Precip: --
Heat Index: NA
Wind Chill: NA
Current conditions at:

Santa Monica, Santa Monica Municipal Airport, CA (KSMO)

Lat: 34.01583 Lon: -118.45139

Local Radar Image active severe weather and emergency alerts image image weather storm and storm spotter reports image weather observation monitoring service image
Local
Radar
Active
Alerts
Storm Reports Weather
Monitoring

5 Day Forecast for LOS ANGELES, CALIFORNIA (90001)

Thursday

Partly Sunny

High 72 °F
Thursday
Night
Partly Cloudy

Low 58 °F
Friday

Mostly Cloudy

High 68 °F
Friday
Night
Mostly Cloudy

Low 59 °F
Saturday

Partly Sunny

High 68 °F
Saturday
Night
Overnight Fog
Low 57 °F
Sunday

Partly Sunny

High 70 °F
Sunday
Night
Chance of Rain
Low 59 °F
Monday

Rain Likely
High 66 °F

Sign-up For Email & Text Message Weather Alert Notification Services



Advertise Here

Observation History for LOS ANGELES, CALIFORNIA


Time Wind
(mph)
Vis
(mi)
Weather Precip (in) Temperature (F) Relative
Humidity
Wind
Chill
(F)
Heat
Index
(F)
Pressure
Air Dwpt altimeter
(in)
sea level
(mb)
9:51 am PDT N 0.0 10.00 Fair -- 65.0 46.9 52% NA NA 30.13 1020.1
8:51 am PDT N 0.0 10.00 Fair -- 59.0 48.9 69% NA NA 30.12 1019.9
7:51 am PDT E 3.5 10.00 Fair -- 55.0 46.9 74% NA NA 30.10 1019.2
6:51 am PDT N 0.0 10.00 Fair -- 51.0 46.9 86% NA NA 30.10 1019.1
5:51 am PDT N 3.5 10.00 Fair -- 53.0 46.9 80% NA NA 30.09 1018.9
4:51 am PDT N 0.0 10.00 Fair -- 54.0 46.9 77% NA NA 30.08 1018.6
3:51 am PDT N 3.5 10.00 Fair -- 54.0 48.9 83% NA NA 30.09 1018.9
2:51 am PDT N 0.0 10.00 Fair -- 54.0 48.9 83% NA NA 30.09 1018.9
1:51 am PDT N 0.0 10.00 Fair -- 54.0 50.0 87% NA NA 30.10 1019.1
12:51 am PDT NE 3.5 10.00 Fair -- 55.0 51.1 87% NA NA 30.10 1019.1
11:51 pm PDT N 0.0 10.00 Fair -- 56.0 52.0 87% NA NA 30.10 1019.3
10:51 pm PDT N 0.0 10.00 Fair -- 57.0 53.1 87% NA NA 30.09 1019.0
9:51 pm PDT N 0.0 10.00 Fair -- 58.0 53.1 84% NA NA 30.09 1018.9
8:51 pm PDT N 0.0 10.00 Fair -- 57.0 53.1 87% NA NA 30.08 1018.6
7:51 pm PDT N 0.0 10.00 Fair -- 58.0 54.0 87% NA NA 30.08 1018.6
6:51 pm PDT SW 4.6 10.00 Fair -- 61.0 55.0 81% 61 NA 30.07 1018.2
5:51 pm PDT SW 5.8 10.00 Fair -- 62.0 53.1 73% 62 NA 30.06 1017.9
4:51 pm PDT SW 10.4 10.00 Fair -- 63.0 52.0 68% 62 NA 30.07 1018.0
3:51 pm PDT SW 9.2 10.00 Fair -- 63.0 55.0 76% 62 NA 30.07 1018.0
2:51 pm PDT SW 10.4 10.00 Fair -- 64.0 54.0 70% NA NA 30.07 1018.1
1:51 pm PDT 6.9 10.00 Fair -- 66.0 51.1 59% NA NA 30.08 1018.5
12:51 pm PDT SW 6.9 10.00 Fair -- 65.0 52.0 63% NA NA 30.10 1019.1
11:51 am PDT SW 6.9 10.00 Fair -- 64.0 51.1 63% NA NA 30.11 1019.7
10:51 am PDT S 5.8 10.00 Fair -- 65.0 52.0 63% NA NA 30.12 1020.0

Regional Weather Observation

Los Angeles / USC Campus Downtown, CA (KCQT)

Fair
67.0 F

Burbank - Bob Hope Airport, CA (KBUR)

Fair
65.0 F

Van Nuys, Van Nuys Airport, CA (KVNY)

Fair
67.0 F

Los Angeles, Whiteman Airport, CA (KWHP)

Clear
66.0 F

Los Angeles, Los Angeles International Airport, CA (KLAX)

Mostly Cloudy
65.0 F

Hawthorne, Hawthorne Municipal Airport, CA (KHHR)

Fair
65.0 F

Advertise Here


Advertise Here